Kuiper-00035

operational
NORAD ID: 63748 Int'l Des: 2025-088 Owner: KUIP Country: US Constellation: kuiper
LEOCIRCULARSTARLINK_TYPE

关于 Kuiper-00035

正在加载描述...

实时位置

正在加载3D地球...

即将过境

高度历史

Altitude vs Time

uPlot chart will show altitude changes over time

两行轨道根数

1 63748U 25088AA 25260.96616046 .00003007 00000-0 42375-3 0 9998
2 63748 51.9004 157.8844 0004435 212.2864 147.7828 14.79890808 21933
Epoch: Sep 17, 2025 • Age: 28 hours

当前状态

高度 632.5 km
速度 7.54 km/s
星下点 9.54°N, 120.13°E
发射日期 Apr 28, 2025
运行时间 0.3 years
类型 internet

技术详情

分类 Payload
质量 490.00 kg
干质量 490.00 kg
总质量 490.00 kg
长度 1.80 m
直径 0.70 m
跨度 5.00 m
形状 Box + 2 pan
制造商 KUIP
平台类型 Kuiper
阶段状态 In Orbit
所有者/国家 KUIP/US

大型星座

Loading constellations...